THORAD AGENA D DEB, 42526

Orbit data source: Space-Track

THORAD AGENA D DEB, 42526 is space debris in SSO originally from a launch on Wed, 08 Apr 1970 UTC launched from the Air Force Western Test Range (AFWTR). Debris objects in space refer to the collection of defunct objects orbiting the Earth. Examples of debris include non-operational satellites, rocket bodies, and fragments generated from explosions, collisions, or faulty payload assembly.

Loading next visibility...
Identifier
42526, 1970-025SG
Orbit
SSO
Country
Flag of USUS
Related business
Manufacturer
Unknown
Mission
Spacecraft
Bus & Motor
Unknown
Mass
Unknown
Launch date (UTC)
1970-04-08 (56 years ago)
Launch vehicle
Unknown
Launch site
Air Force Western Test Range (AFWTR)
Object type
Payload
Rocket body
Debris
Shape & HBR
Unknown shape, 0.1 m
Radar Cross Section
Small (<0.1 m²)

Expand to show TLE details & history
Last TLE update: 2 days ago

TLE from 2 days ago
0 THORAD AGENA D DEB
1 42526U 70025SG  26254.09277051  .00000160  00000-0  15755-3 0  9996
2 42526  99.8131 203.1655 0085961 258.0564 163.8456 13.92893137649540
Epoch: 2026-09-11T02:13Z
TLE epoch observation values (Epoch: 2026-09-11T02:13:35.372Z)
Latitude
60.719°
Longitude
161.77678°
Altitude
989.086 km
Speed
7.332 km/s
True Right ascension
12h 21m 10s
True Declination
60° 34' 36"
Sunlit
Object was in daylight at epoch
Visualization orbit readout
Latitude
Unknown
Longitude
Unknown
Altitude
Unknown
Speed
Unknown
Apparent Right ascension
Unknown
Apparent Declination
Unknown
Sunlit
N/A
Visualization observer readout
Local Sidereal Time
05:59:39
Azimuth
Unknown
Elevation
Unknown
Doppler factor
Unknown
Orbital elements
Apogee altitude
978.459 km
Perigee altitude
853.06 km
Semi-major axis
7,293.897 km
Eccentricity
0.0086
Inclination
99.8131°
RAAN
203.1655°
Arg. of periapsis
258.0564°
True anomaly
164.11686°
Mean anomaly
163.8456°
Eccentric anomaly
163.98151°
Mean motion
3.48421 °/min
Orbital period
103.32 mins
BSTAR
0.00015755
Loading maneuver chart data...
Computing Atmospheric mass density...

Documentation

Showing up to 5 results
|